* Astronomy

Members Login
Username 
 
Password 
    Remember Me  
Post Info TOPIC: SL-12 Rocket Body Re-entry


L

Posts: 131433
Date:
RE: SL-12 Rocket Body Re-entry
Permalink  
 


Update:
The SL-12 Rocket Body re-entered the Earths atmosphere on the 27th March, 2012 @ 15:23 GMT ± 5 hours.

Inclination: 46.31°
Revolution Number:  20214
Predicted Location:   44.4°S, 192.5°E

 



__________________


L

Posts: 131433
Date:
Permalink  
 

Update:
The SL-12 Rocket Body is predicted to re-enter the Earths atmosphere on the 27th March, 2012 @ 15:23 GMT ± 5 hours.

SL-12 R/B(AUX MOTOR)
1 26398U 00036E   12087.30303334  .15473209  10092-4  36450-3 0  8340
2 26398 046.3091 000.7003 0144723 249.3847 198.1596 16.19641879202107

26398b.gif
Expand (28kb, 857 x 564)

Period:       88.91 minutes
Inclination: 46.31°
Apogee:     316 km
Perigee:     125 km
Revolution Number:  20214
Predicted Location:   44.4°S, 192.5°E



__________________


L

Posts: 131433
Date:
Permalink  
 

Update:
The SL-12 Rocket Body is predicted to re-enter the Earths atmosphere on the 27th March, 2012 @ 15:23 GMT ± 7 hours.

SL-12 RB
1 26398U 00036E   12087.12562568  .13781642  99866-5  42825-3 0  8336
2 26398 046.3108 001.7703 0163918 248.4236 245.3116 16.13576994202071

Period:       91.40 minutes
Inclination: 46.31°
Apogee:     546 km
Perigee:     140 km
Revolution Number:  20214
Predicted Location:   43.8°S, 189.8°E



__________________


L

Posts: 131433
Date:
Permalink  
 

Update:
The SL-12 Rocket Body is predicted to re-enter the Earths atmosphere on the 27th March, 2012 @ 15:35 GMT ± 15 hours.

SL-12 RB
1 26398U 00036E   12086.61552802  .10872904  96571-5  51725-3 0  8326
2 26398 046.2916 004.8495 0214160 243.6179 176.9170 15.99559028201999

Period:       91.40 minutes
Inclination: 46.29°
Apogee:     546 km
Perigee:     140 km
Revolution Number:  20214
Predicted Location:   37.9°S, 252.9°E



__________________


L

Posts: 131433
Date:
Permalink  
 

A SL-12 Rocket Body that was launched on the 4th July, 2000, from the Tyuratam launch complex for the KOSMOS 2371 satellite mission is predicted to re-enter the Earths atmosphere on the 27th March, 2012 @ 14:10 GMT ± 24 hours.

SL-12 RB
1 26398U 00036E   12085.73865100  .07889415  92868-5  57251-3 0  8276
2 26398 046.3172 009.9893 0277354 237.6162 196.3143 15.82532671201859

Period:       92.22 minutes
Inclination: 46.31°
Apogee:     616 km
Perigee:     151 km
Revolution Number:  20213
Predicted Location:   28.4°S, 291.5°E



__________________
Page 1 of 1  sorted by
 
Quick Reply

Please log in to post quick replies.



Create your own FREE Forum
Report Abuse
Powered by ActiveBoard